Weather History for Paducah, KY

Change the Weather History Date:

Tuesday, November 20, 2012

  Actual Average Record
Temperature  
Mean Temperature 57 °F 46 °F  
Max Temperature 68 °F 56 °F 80 °F (1942)
Min Temperature 45 °F 36 °F 20 °F (1951)
Degree Days  
Heating Degree Days 8 19  
Month to date heating degree days 350 299  
Since 1 July heating degree days 670 566  
Cooling Degree Days 0 0  
Month to date cooling degree days 0 0  
Year to date cooling degree days 1977 1538  
Growing Degree Days 6 (Base 50)    
Moisture  
Dew Point 45 °F    
Average Humidity 69    
Maximum Humidity 89    
Minimum Humidity 48    
Precipitation  
Precipitation 0.00 in 0.16 in 2.21 in (1956)
Month to date precipitation 1.42 2.73  
Year to date precipitation 25.52 42.92  
Snow  
Snow 0.00 in 0.00 in - ()
Month to date snowfall 0.0 0.0  
Since 1 July snowfall 0.0 0.1  
Since 1 September snowfall 0.0 0.1  
Snow Depth 0.00 in    
Sea Level Pressure  
Sea Level Pressure 30.11 in    
Wind  
Wind Speed 6 mph (WSW)    
Max Wind Speed 13 mph    
Max Gust Speed 23 mph    
Visibility 9 miles    
Events      
T = Trace of Precipitation, MM = Missing Value Source: NWS Daily Summary

Daily Weather History Graph

Daily Weather History Graph

Search for Another Location

Airport:

Trip Planner

Search our weather history database for the weather conditions in past years. The results will help you decide how hot, cold, wet, or windy it might be!

Date:

Astronomy

Nov. 20, 2012 Rise Set
Actual Time 6:39 AM CST 4:41 PM CST
Civil Twilight 6:11 AM CST 5:09 PM CST
Nautical Twilight 5:39 AM CST 5:41 PM CST
Astronomical Twilight 5:08 AM CST 6:12 PM CST
Moon 12:18 PM CST (11/20) No Moon Set
Length of Visible Light 10h 58m
Length of Day
10h 02m
First Quarter, 51% of the Moon is Illuminated
Nov 20
First Quarter
Nov 28
Full
Dec 6
Last Quarter
Dec 13
New
Dec 19
First Quarter

Hourly Weather History & Observations

Time (CST) Temp. Dew Point Humidity Pressure Visibility Wind Dir Wind Speed Gust Speed Precip Events Conditions
12:53 AM 53.1 °F 42.1 °F 66% 30.14 in 10.0 mi Calm Calm - N/A   Overcast
1:53 AM 54.0 °F 39.9 °F 59% 30.14 in 10.0 mi South 3.5 mph - N/A   Overcast
2:53 AM 52.0 °F 42.1 °F 69% 30.15 in 10.0 mi South 3.5 mph - N/A   Overcast
3:53 AM 54.0 °F 39.9 °F 59% 30.13 in 10.0 mi South 5.8 mph - N/A   Overcast
4:53 AM 54.0 °F 41.0 °F 62% 30.13 in 10.0 mi South 3.5 mph - N/A   Overcast
5:53 AM 54.0 °F 41.0 °F 62% 30.12 in 10.0 mi South 4.6 mph - N/A   Overcast
6:53 AM 54.0 °F 41.0 °F 62% 30.13 in 10.0 mi SW 8.1 mph - N/A   Overcast
7:53 AM 54.0 °F 42.1 °F 64% 30.14 in 10.0 mi SW 6.9 mph - N/A   Overcast
8:53 AM 57.0 °F 43.0 °F 59% 30.13 in 10.0 mi WSW 11.5 mph 23.0 mph N/A   Mostly Cloudy
9:53 AM 60.1 °F 43.0 °F 53% 30.13 in 10.0 mi WSW 10.4 mph - N/A   Clear
10:53 AM 63.0 °F 45.0 °F 52% 30.11 in 10.0 mi West 8.1 mph - N/A   Clear
11:53 AM 64.9 °F 46.9 °F 52% 30.07 in 10.0 mi WSW 5.8 mph - N/A   Clear
12:53 PM 66.0 °F 46.9 °F 50% 30.05 in 10.0 mi WSW 11.5 mph - N/A   Clear
1:53 PM 66.9 °F 48.0 °F 51% 30.04 in 10.0 mi WSW 11.5 mph - N/A   Clear
2:53 PM 66.9 °F 48.9 °F 52% 30.04 in 10.0 mi SW 6.9 mph - N/A   Clear
3:53 PM 64.9 °F 50.0 °F 58% 30.05 in 10.0 mi West 8.1 mph - N/A   Clear
4:53 PM 60.1 °F 50.0 °F 69% 30.07 in 10.0 mi West 3.5 mph - N/A   Clear
5:53 PM 55.9 °F 48.9 °F 77% 30.08 in 10.0 mi West 3.5 mph - N/A   Clear
6:53 PM 51.1 °F 48.0 °F 89% 30.10 in 9.0 mi WNW 4.6 mph - N/A   Clear
7:53 PM 55.0 °F 48.0 °F 77% 30.12 in 10.0 mi NNW 4.6 mph - N/A   Clear
8:53 PM 53.1 °F 46.9 °F 80% 30.14 in 9.0 mi North 5.8 mph - N/A   Clear
9:53 PM 53.1 °F 46.9 °F 80% 30.14 in 8.0 mi Calm Calm - N/A   Clear
10:53 PM 51.1 °F 46.0 °F 83% 30.15 in 7.0 mi NNW 4.6 mph - N/A   Clear
11:53 PM 45.0 °F 43.0 °F 93% 30.16 in 5.0 mi Calm Calm - N/A   Clear